Back to catalog

THORAD AGENA D DEB

AliveLEO
NORAD 4768·DEBRIS·🇺🇸 United States

Launched Apr 8, 1970 from Vandenberg Space Force Base

Loading…

Next Passes (next 24 hours)

TLE

FreshSource: Space-Track

Epoch: Sep 14, 2026, 03:20 UTC

1 04768U 70025DN  26257.13948813  .00000204  00000-0  27941-3 0  9990
2 04768 100.1571 307.7436 0030899 152.9846 230.0488 13.71794705810059

Track THORAD AGENA D DEB in real time with AllMySat

Download on the App Store